Regional Weather Roundup
Issued by NWS

Home | Current Version | Previous Version | Text Only | Print | Product List | Glossary Off
Versions: 1 2 3 4 5 6 7 8 9 10 11 12 13 14 15 16 17 18 19 20 21 22 23 24 25 26 27 28 29 30 31 32 33 34 35 36 37 38 39 40 41 42 43 44 45 46 47 48 49 50

000
ASUS45 KTFX 022004
RWRMT
MONTANA HOURLY WEATHER ROUNDUP
NATIONAL WEATHER SERVICE GREAT FALLS MT
104 PM MST MON MAR 2 2015

NOTE: "FAIR" INDICATES FEW OR NO CLOUDS BELOW 12000 FEET WITH NO
SIGNIFICANT WEATHER AND/OR OBSTRUCTIONS TO VISIBILITY.

* THESE STATIONS ARE NOT UNDER NWS QUALITY CONTROL. THEY DO NOT
   REPORT WEATHER SUCH AS PRECIPITATION OR FOG.

MTZ001>007-043-022100-
WEST OF THE DIVIDE
CITY           SKY/WX    TMP DP  RH WIND       PRES   REMARKS
KALISPELL      LGT SNOW  30  21  69 NE15G22   29.91R WCI  19
MISSOULA       CLOUDY    34  12  40 S3        29.85F
BUTTE          PTSUNNY   34   7  32 NW5       29.74F WCI  29
MULLAN PASS    LGT SNOW  23  14  68 CALM      29.74F VSB 2
* ANACONDA     PTSUNNY   28  12  51 N7         N/A   WCI  21
* ESSEX        N/A       23  20  88 NE4        N/A
* LINCOLN      N/A       30  20  66 NE7G16     N/A   WCI  23
* LOOKOUT PASS N/A       31  16  54 SE4        N/A
* POLSON       N/A       30  13  49 N3         N/A
* RONAN APT    CLOUDY    32  18  56 N10        N/A   WCI  24
* SEELEY LAKE  N/A       32   8  36 S1         N/A
* THOMP F APT  CLOUDY    36   8  31 S6G11      N/A   WCI  31
$$

MTZ008-052>055-022100-
SOUTHWEST MONTANA
CITY           SKY/WX    TMP DP  RH WIND       PRES   REMARKS
BOZEMAN        SUNNY     39   7  26 NW9       29.76F WCI  33
DILLON         SUNNY     37   3  24 VRB3      29.72F
* W YELLOWSTON PTCLDY    29   7  39 E3         N/A
* THREE FORKS  PTCLDY    39   9  29 E5         N/A   WCI  35
* BOULDER HILL N/A       27   5  39 VRB15G20    N/A   WCI  15
* MONIDA PASS  N/A       32  -1  24 SW3G9      N/A
* RAYNOLDS PAS N/A       30  11  45 SE9        N/A   WCI  22
* WHITEHALL    N/A       42   8  24 NW3        N/A
* WISE RIVER   N/A       34   8  33 S4         N/A
$$

MTZ009>010-012-014-046-048-049-054-022100-
EAST SLOPES AND CENTRAL MONTANA
CITY           SKY/WX    TMP DP  RH WIND       PRES   REMARKS
CUT BANK       LGT SNOW  21  18  88 N29G43    29.96R VSB 1 1/4 WCI   3
GREAT FALLS    LGT SNOW  28  23  81 NE16      29.89S VSB 3/4  WCI  16
HELENA         CLOUDY    36  19  50 N16       29.85S WCI  26
MALMSTROM AFB  LGT SNOW  28  25  89 N17G24    29.91S WCI  16
* DEARBORN     N/A       28  26  92 VRB12G18    N/A   WCI  18
* EAST GLACIER N/A       17  13  84 NE29G35    N/A   WCI  -3
* MONARCH      N/A       23  17  78 N10        N/A   WCI  13
* PENDROY      N/A       24  21  88 N24G29     N/A   WCI   8
* ROGERS PASS  N/A       23  19  85 SW2G8      N/A
* SWEET GRASS  N/A       21  14  74 NE34G42    N/A   WCI   2
$$

MTZ011-013-016-021-035-040-045-047-050-051-022100-
NORTH CENTRAL MONTANA
CITY           SKY/WX    TMP DP  RH WIND       PRES   REMARKS
HAVRE          CLOUDY    30  18  61 N17       29.91R WCI  18
LEWISTOWN      CLOUDY    28  21  75 NW13G21   29.83F WCI  17
* N BAR RANCH  SUNNY     32  19  59 NW20G25   29.78F WCI  20
* CHESTER      N/A       28  18  66 NE15G25    N/A   WCI  16
* DENTON       N/A       28  23  81 NW14G21    N/A   WCI  17
* GEYSER       N/A       29  22  75 W19        N/A   WCI  16
* JUDITH GAP   N/A       27  22  81 VRB27G32    N/A   WCI  11
* LOMA         N/A       30  21  69 NW19G27    N/A   WCI  18
$$

MTZ017>020-022>027-061-062-022100-
NORTHEAST MONTANA
CITY           SKY/WX    TMP DP  RH WIND       PRES   REMARKS
GLASGOW        PTCLDY    39  16  39 W16G23    29.76S WCI  30
GLENDIVE       SUNNY     43  16  34 W13G21    29.77F
JORDAN         PTSUNNY   39  16  39 W15       29.78S WCI  31
SIDNEY         PTCLDY    39  14  36 S14       29.78F WCI  31
WOLF POINT     PTCLDY    39  16  39 W17       29.76F WCI  30
* BEAVER HILL  N/A       39  14  36 SW17G22    N/A   WCI  30
* CIRCLE       N/A       40  19  43 W11G16     N/A   WCI  33
* LINDSAY DVD  N/A       39  14  36 SW19G26    N/A   WCI  29
* NAVAJO       N/A       34  16  48 W22G28     N/A   WCI  22
* SACO         N/A       37  17  44 W13G20     N/A   WCI  29
$$

MTZ028>042-056>058-022100-
SOUTHCENTRAL AND SOUTHEAST MONTANA
CITY           SKY/WX    TMP DP  RH WIND       PRES   REMARKS
BAKER          PTCLDY    41  18  39 W13       29.77F
BILLINGS       PTCLDY    46   7  20 NW12      29.75F
LIVINGSTON     SUNNY     39   9  29 NW8       29.74F WCI  33
MILES CITY     PTCLDY    43  14  31 W15G22    29.79F
* LAUREL APT   PTCLDY    45  10  24 SW5        N/A
* ROUNDUP APT  PTCLDY    41   9  27 N15G21     N/A
* ALZADA       N/A       43  19  38 SW8        N/A
* HYSHAM       N/A       41  10  28 NW2G9      N/A
* LAME DEER    N/A       37  10  33 NW9        N/A   WCI  30
* REED POINT   N/A       45  15  30 N/A        N/A
* ROSCOE HILL  N/A       37   2  23 S3         N/A
$$

REGIONAL REPORTS...DAKOTAS
CITY           SKY/WX    TMP DP  RH WIND       PRES   REMARKS
WILLISTON      PTCLDY    34  16  48 SW16      29.74F WCI  24
DICKINSON      SUNNY     41  14  33 SW16G23   29.74F
BEACH          SUNNY     37  16  42 W17G23    29.76F WCI  27
CROSBY         SUNNY     30  16  56 SW17G24   29.74F WCI  18
WATFORD CITY   SUNNY     34  16  48 SW14      29.73F WCI  24
BISMARCK       SUNNY     36  19  50 S15       29.87F WCI  27
GRAND FORKS    SUNNY     27  16  63 S25G32    30.08F WCI  12
FARGO          SUNNY     32  12  43 S23G30    30.12F WCI  19
BUFFALO SD     PTCLDY    43  18  37 SW12      29.71F
RAPID CITY     PTSUNNY   46  23  40 S20       29.75F
$$

REGIONAL REPORTS...WYOMING/IDAHO/WASHINGTON
CITY           SKY/WX    TMP DP  RH WIND       PRES   REMARKS
GILLETTE       PTSUNNY   43  12  28 CALM      29.75F
SHERIDAN       PTSUNNY   37  16  42 S5        29.75F WCI  33
CODY           SUNNY     37  19  48 NE12      29.72F WCI  29
YELLOWSTONE LA SUNNY     25  10  53 E6        29.72F WCI  18
SALMON         SUNNY     37   9  31 N3        29.76F
MULLAN PASS    LGT SNOW  23  14  68 CALM      29.74S VSB 2
SAND POINT     CLOUDY    36  23  59 NE3       29.90F
SPOKANE        PTSUNNY   37  25  62 NE6       29.89F WCI  32

$$




USA.gov is the U.S. government's official web portal to all federal, state and local government web resources and services.